Regional Weather Roundup
Issued by NWS Burlington, VT

Home | Current Version | Previous Version | Graphics & Text | Print | Product List | Glossary On
Versions: 1 2 3 4 5 6 7 8 9 10 11 12 13 14 15 16 17 18 19 20 21 22 23 24 25 26 27 28 29 30 31 32 33 34 35 36 37 38 39 40 41 42 43 44 45 46 47 48 49 50
000
ASUS41 KBTV 271230
RWRBTV
VERMONT REGIONAL WEATHER ROUNDUP
NATIONAL WEATHER SERVICE BURLINGTON VT
800 AM EDT THU APR 27 2017

NOTE: "FAIR" INDICATES FEW OR NO CLOUDS BELOW 12,000 FEET WITH NO
SIGNIFICANT WEATHER AND/OR OBSTRUCTIONS TO VISIBILITY.

* THESE REPORTS ARE NOT UNDER NWS QUALITY CONTROL AND/OR DO NOT
  REPORT WEATHER SUCH AS PRECIPITATION AND FOG.

VTZ001>019-271300-
_____VERMONT_____


CITY           SKY/WX    TMP DP  RH WIND       PRES   REMARKS
BURLINGTON     MOSUNNY   64  56  75 S7        29.84R
6HR MIN TEMP:  52; 6HR MAX TEMP:  64;

MONTPELIER     CLOUDY    56  55  97 S5        29.93R
6HR MIN TEMP:  53; 6HR MAX TEMP:  56;

MORRISVILLE    CLOUDY    57  54  89 CALM      29.89R
6HR MIN TEMP:  53; 6HR MAX TEMP:  57;

ST. JOHNSBURY*   N/A     56  52  86 MISG      29.89R
6HR MIN TEMP:  54; 6HR MAX TEMP:  56;

LYNDONVILLE*   CLOUDY    55  52  90 CALM      29.92R
6HR MIN TEMP:  52; 6HR MAX TEMP:  54;

MIDDLEBURY*    CLOUDY    64  55  72 S6        29.86S
6HR MIN TEMP:  54; 6HR MAX TEMP:  64;

RUTLAND*       CLOUDY    57  53  86 SE6       29.89R
6HR MIN TEMP:  55; 6HR MAX TEMP:  57;

SPRINGFIELD    CLOUDY    54  53  97 CALM      29.92R FOG
6HR MIN TEMP:  52; 6HR MAX TEMP:  54;

HIGHGATE*      FAIR      61  56  83 CALM      29.84S
6HR MIN TEMP:  48; 6HR MAX TEMP:  59;

NEWPORT*       CLOUDY    58  54  86 S6        29.90S
6HR MIN TEMP:  51; 6HR MAX TEMP:  56;

BENNINGTON     CLOUDY    59  53  80 CALM      29.89R
6HR MIN TEMP:  53; 6HR MAX TEMP:  59;

SUTTON*          N/A     55 N/A N/A MISG        N/A
MT. MANSFIELD*   N/A     52 N/A N/A SE8         N/A

_____LAKE CHAMPLAIN_____


CITY           SKY/WX    TMP DP  RH WIND       PRES   REMARKS
BURTON ISLAND*   N/A     52  52 100 SW6         N/A
COLCHESTER RF*   N/A     55  54  94 S13         N/A
DIAMOND ISL*     N/A     55  54  94 S8          N/A

$$

NYZ007-026>031-035-052-083-087-271300-
_____NORTHERN NEW YORK_____


CITY           SKY/WX    TMP DP  RH WIND       PRES   REMARKS
PLATTSBURGH    SUNNY     56  52  86 CALM      29.83S
6HR MIN TEMP:  44; 6HR MAX TEMP:  56;

SARANAC LAKE   MOSUNNY   50  50 100 CALM      29.84S
6HR MIN TEMP:  41; 6HR MAX TEMP:  50;

MASSENA        FOG       52  52 100 NE9       29.83R VSB 1/4
6HR MIN TEMP:  52; 6HR MAX TEMP:  54;

OGDENSBURG*    CLOUDY    56  56  98 NE6       29.79S
6HR MIN TEMP:  52; 6HR MAX TEMP:  55;

POTSDAM*       SUNNY     55  55 100 NE5       29.80S
WATERTOWN      SUNNY     67  58  72 VRB5      29.75S
6HR MIN TEMP:  50; 6HR MAX TEMP:  67;

FT DRUM        SUNNY     62  55  79 SE16      29.77
6HR MIN TEMP:  58; 6HR MAX TEMP:  62; 6HR PCP: TRACE;

ALBANY         CLOUDY    61  54  77 VRB5      29.88R
6HR MIN TEMP:  57; 6HR MAX TEMP:  61;

GLENS FALLS    CLOUDY    61  54  77 S6        29.87R
6HR MIN TEMP:  57; 6HR MAX TEMP:  61;


$$
NHZ002-005-011-271300-
_____NEW HAMPSHIRE_____


CITY           SKY/WX    TMP DP  RH WIND       PRES   REMARKS
LEBANON        CLOUDY    56  55  97 CALM      29.91R FOG
6HR MIN TEMP:  54; 6HR MAX TEMP:  55;

KEENE          CLOUDY    54  54 100 CALM      29.92R FOG
6HR MIN TEMP:  53; 6HR MAX TEMP:  54; 6HR PCP: TRACE;

MT WASHINGTON  PTSUNNY   46  45  93 SE18        N/A
6HR MIN TEMP:  42; 6HR MAX TEMP:  47;

PLYMOUTH       DRIZZLE   54  53  97 CALM      29.92R
6HR MIN TEMP:  52; 6HR MAX TEMP:  54;

WHITEFIELD     CLOUDY    57  51  80 CALM      29.91R
6HR MIN TEMP:  44; 6HR MAX TEMP:  55; 6HR PCP: TRACE;


$$

_____REGIONAL QUEBEC LOCATIONS_____


CITY           SKY/WX    TMP DP  RH WIND       PRES   REMARKS
MONTREAL       FOG       52  50  93 N12       29.86R VSB 5/8
QUEBEC CITY    CLOUDY    41  39  93 E9G18     29.96S
SHERBROOKE     CLOUDY    54  52  94 NE3       29.88S

_____REGIONAL ONTARIO LOCATIONS_____


CITY           SKY/WX    TMP DP  RH WIND       PRES   REMARKS
OTTAWA         DRZL/FOG  54  54 100 E13       29.80S VSB 3/8

______KEY______
VSB  - VISIBILITY IN MILES
WCI  - WIND CHILL INDEX
HX   - HEAT INDEX
$$
NNNN



USA.gov is the U.S. government's official web portal to all federal, state and local government web resources and services.